Preview of NWS' New Version of Forecast
This preview is not operational and should not be used for support decisions.

Regional Weather Roundup (RWR)

Issued by National Weather Service (NWS)

                            
000
ASUS46 KPQR 260510
RWROR 

OREGON REGIONAL WEATHER ROUNDUP
NATIONAL WEATHER SERVICE PORTLAND OR
1000 PM PDT SUN AUG 25 2019

NOTE: "FAIR" INDICATES FEW OR NO CLOUDS BELOW 12,000 FEET WITH
NO SIGNIFICANT WEATHER AND/OR OBSTRUCTIONS TO VISIBILITY.

ORZ001>013-260600-
NORTHWEST OREGON

  
CITY           SKY/WX    TMP DP  RH WIND       PRES   REMARKS
ASTORIA        CLEAR     60  54  80 NW12      30.22R                  
TILLAMOOK      CLEAR     55  52  88 CALM      30.22R                  
NEWPORT        CLEAR     54  50  87 CALM      30.19R FOG              
FLORENCE       FAIR      59  52  77 CALM      30.13R HAZE             
PORTLAND       CLEAR     68  52  56 N9        30.16R                  
VANCOUVER WA   CLEAR     68  50  52 N6        30.16R                  
SCAPPOOSE      CLEAR     65  52  62 N5        30.16R                  
HILLSBORO      CLEAR     63  52  67 NW8       30.17R                  
AURORA         CLEAR     68  52  56 NW5       30.16R                  
MCMINNVILLE    CLEAR     67  51  56 N9        30.15R                  
SALEM          CLEAR     69  50  50 N10       30.14R                  
CORVALLIS      CLEAR     69  50  50 N6        30.14R HAZE             
EUGENE         PTCLDY    66  47  50 N10       30.12R                  
CRESWELL         N/A     61  52  72 CALM      30.11R                  
$$

ORZ021-028-260600-
SOUTHWEST OREGON

  
CITY           SKY/WX    TMP DP  RH WIND       PRES   REMARKS
NORTH BEND     CLEAR     57  54  89 N10       30.13R                  
BROOKINGS      CLEAR     63  56  78 CALM      30.00R                  
ROSEBURG       CLEAR     74  44  34 N7        30.09R                  
SEXTON SUMMIT  CLEAR     61  44  53 N14       30.18S                  
GRANTS PASS    FAIR      75  45  33 N7        30.09R                  
MEDFORD        CLEAR     78  49  35 N5        30.05R                  
$$

ORZ014>016-041-260600-
COLUMBIA GORGE

  
CITY           SKY/WX    TMP DP  RH WIND       PRES   REMARKS
TROUTDALE      CLEAR     68  52  56 CALM      30.15R                  
HOOD RIVER     CLEAR     63  48  59 CALM      30.13R                  
THE DALLES     CLEAR     72  47  40 W14       30.07S                  
$$

ORZ029>031-041-044-049-050-061>064-502-503-505>511-260600-
EASTERN OREGON

  
CITY           SKY/WX    TMP DP  RH WIND       PRES   REMARKS
MADRAS         CLEAR     61  34  36 N6        30.17S                  
REDMOND        CLEAR     58  34  40 CALM      30.17R                  
BEND           CLEAR     63  37  39 CALM      30.19R                  
PRINEVILLE     CLEAR     59  34  38 SW6       30.18R                  
KLAMATH FALLS  CLEAR     68  50  52 W8        30.16R                  
LAKEVIEW       CLEAR     65  38  36 N12       30.20R                  
HERMISTON      CLEAR     71  47  42 W7        30.06R                  
PENDLETON      CLEAR     66  38  35 S7        30.08R                  
JOHN DAY       CLEAR     66  32  28 CALM      30.18S                  
MEACHAM        CLEAR     49  37  63 CALM      30.19R                  
LA GRANDE      CLEAR     61  39  44 W9        30.15R                  
BAKER CITY     CLEAR     61  40  45 N9        30.16R                  
BURNS          CLEAR     58  31  35 NW8       30.18R                  
ROME             N/A     71  31  22 N9        30.13R                  
ONTARIO        CLEAR     76  33  21 N22G30    30.05R                  
$$